Ely, MN

10:48 AM CDT on August 16, 2017 (GMT -0500)
Ely Municipal

Weather History for KELO - June, 2012

Change the Weather History Date:

Saturday, June 9, 2012

  Actual Average Record
Temperature  
Mean Temperature 70 °F -  
Max Temperature 87 °F 67 °F 87 °F (2012)
Min Temperature 53 °F 44 °F 37 °F (1998)
Cooling Degree Days 5    
Growing Degree Days 20 (Base 50)    
Moisture  
Dew Point 56 °F    
Average Humidity 60    
Maximum Humidity 100    
Minimum Humidity 29    
Precipitation  
Precipitation 0.00 in - - ()
Sea Level Pressure  
Sea Level Pressure 29.67 in    
Wind  
Wind Speed 3 mph (SSW)    
Max Wind Speed 14 mph    
Max Gust Speed 22 mph    
Visibility 10 miles    
Events      
Averages and records for this station are not official NWS values.
T = Trace of Precipitation, MM = Missing Value Source: NWS Daily Summary

Daily Weather History Graph

Daily Weather History Graph

Search for Another Location

Airport or City:

Trip Planner

Search our weather history database for the weather conditions in past years. The results will help you decide how hot, cold, wet, or windy it might be!

Date:

Astronomy

Jun. 09, 2012 Rise Set
Actual Time 5:08 AM CDT 9:04 PM CDT
Civil Twilight 4:28 AM CDT 9:45 PM CDT
Nautical Twilight 3:32 AM CDT 10:41 PM CDT
Astronomical Twilight 2:05 AM CDT 12:10 AM CDT
Moon 12:09 AM CDT (6/9) 11:15 AM CDT (6/9)
Length of Visible Light 17h 17m
Length of Day
15h 55m
Waning Gibbous, 68% of the Moon is Illuminated
Jun 9
Waning Gibbous
Jun 11
Last Quarter
Jun 19
New
Jun 26
First Quarter
Jul 3
Full

Hourly Weather History & Observations

Time (CDT) Temp. Heat Index Dew Point Humidity Pressure Visibility Wind Dir Wind Speed Gust Speed Precip Events Conditions
12:13 AM 62.6 °F - 55.4 °F 77% 29.70 in 10.0 mi Calm Calm - N/A   Scattered Clouds
12:32 AM 59.0 °F - 53.6 °F 82% 29.70 in 10.0 mi Calm Calm - N/A   Clear
12:52 AM 59.0 °F - 55.4 °F 88% 29.70 in 10.0 mi Calm Calm - N/A   Clear
1:13 AM 57.2 °F - 55.4 °F 94% 29.70 in 10.0 mi Calm Calm - N/A   Clear
1:32 AM 57.2 °F - 53.6 °F 88% 29.69 in 10.0 mi Calm Calm - N/A   Clear
1:52 AM 57.2 °F - 53.6 °F 88% 29.69 in 10.0 mi Calm Calm - N/A   Scattered Clouds
2:13 AM 57.2 °F - 53.6 °F 88% 29.69 in 10.0 mi Calm Calm - N/A   Scattered Clouds
2:32 AM 57.2 °F - 53.6 °F 88% 29.69 in 10.0 mi Calm Calm - N/A   Clear
2:52 AM 57.2 °F - 53.6 °F 88% 29.70 in 10.0 mi Calm Calm - N/A   Clear
3:13 AM 57.2 °F - 55.4 °F 94% 29.70 in 10.0 mi Calm Calm - N/A   Clear
3:32 AM 57.2 °F - 53.6 °F 88% 29.70 in 10.0 mi Calm Calm - N/A   Clear
3:52 AM 55.4 °F - 53.6 °F 94% 29.69 in 10.0 mi Calm Calm - N/A   Clear
4:13 AM 55.4 °F - 53.6 °F 94% 29.70 in 10.0 mi Calm Calm - N/A   Clear
4:32 AM 55.4 °F - 53.6 °F 94% 29.70 in 7.0 mi Calm Calm - N/A   Clear
4:52 AM 53.6 °F - 53.6 °F 100% 29.70 in 10.0 mi Calm Calm - N/A   Clear
5:13 AM 53.6 °F - 51.8 °F 94% 29.70 in 10.0 mi Calm Calm - N/A   Clear
5:32 AM 53.6 °F - 51.8 °F 94% 29.70 in 10.0 mi Calm Calm - N/A   Clear
5:52 AM 53.6 °F - 51.8 °F 94% 29.70 in 10.0 mi Calm Calm - N/A   Clear
6:13 AM 55.4 °F - 53.6 °F 94% 29.70 in 10.0 mi Calm Calm - N/A   Clear
6:32 AM 57.2 °F - 55.4 °F 94% 29.70 in 10.0 mi Calm Calm - N/A   Clear
6:52 AM 62.6 °F - 57.2 °F 82% 29.70 in 10.0 mi Calm Calm - N/A   Scattered Clouds
7:13 AM 64.4 °F - 60.8 °F 88% 29.71 in 10.0 mi Calm Calm - N/A   Scattered Clouds
7:33 AM 66.2 °F - 60.8 °F 83% 29.70 in 10.0 mi SSW 3.5 mph - N/A   Clear
7:53 AM 68.0 °F - 60.8 °F 78% 29.70 in 10.0 mi Calm Calm - N/A   Clear
8:12 AM 69.8 °F - 57.2 °F 64% 29.69 in 10.0 mi Calm Calm - N/A   Clear
8:33 AM 71.6 °F - 57.2 °F 60% 29.69 in 10.0 mi SSE 3.5 mph - N/A   Clear
8:53 AM 73.4 °F - 57.2 °F 57% 29.69 in 10.0 mi Calm Calm - N/A   Clear
9:12 AM 73.4 °F - 57.2 °F 57% 29.69 in 10.0 mi Calm Calm - N/A   Clear
9:33 AM 75.2 °F - 57.2 °F 53% 29.69 in 10.0 mi Calm Calm - N/A   Clear
9:53 AM 75.2 °F - 57.2 °F 53% 29.69 in 10.0 mi Calm Calm - N/A   Clear
10:12 AM 75.2 °F - 59.0 °F 57% 29.69 in 10.0 mi SSW 3.5 mph - N/A   Clear
10:33 AM 77.0 °F - 60.8 °F 57% 29.68 in 10.0 mi Calm Calm - N/A   Clear
10:52 AM 78.8 °F - 60.8 °F 54% 29.68 in 10.0 mi SSW 4.6 mph - N/A   Clear
11:12 AM 78.8 °F - 62.6 °F 57% 29.67 in 10.0 mi SSW 3.5 mph - N/A   Clear
11:33 AM 80.6 °F 81.8 °F 62.6 °F 54% 29.67 in 10.0 mi South 5.8 mph - N/A   Clear
11:52 AM 80.6 °F 81.8 °F 62.6 °F 54% 29.68 in 10.0 mi West 6.9 mph - N/A   Clear
12:13 PM 82.4 °F 83.4 °F 62.6 °F 51% 29.68 in 10.0 mi SW 9.2 mph - N/A   Clear
12:32 PM 82.4 °F 83.4 °F 62.6 °F 51% 29.67 in 10.0 mi SSW 9.2 mph - N/A   Clear
12:52 PM 82.4 °F 83.4 °F 62.6 °F 51% 29.67 in 10.0 mi SW 5.8 mph - N/A   Clear
1:13 PM 84.2 °F 85.0 °F 62.6 °F 48% 29.68 in 10.0 mi SW 6.9 mph - N/A   Clear
1:32 PM 84.2 °F 84.4 °F 60.8 °F 45% 29.66 in 10.0 mi SSW 11.5 mph - N/A   Clear
1:52 PM 84.2 °F 83.5 °F 57.2 °F 40% 29.67 in 10.0 mi SSW 9.2 mph 16.1 mph N/A   Clear
2:13 PM 87.8 °F 85.7 °F 53.6 °F 31% 29.66 in 10.0 mi SSW 12.7 mph - N/A   Clear
2:32 PM 87.8 °F 86.1 °F 55.4 °F 33% 29.66 in 10.0 mi WSW 5.8 mph 17.3 mph N/A   Clear
2:52 PM 87.8 °F 86.1 °F 55.4 °F 33% 29.65 in 10.0 mi SW 8.1 mph - N/A   Clear
3:12 PM 87.8 °F 86.1 °F 55.4 °F 33% 29.64 in 10.0 mi SW 10.4 mph - N/A   Scattered Clouds
3:32 PM 87.8 °F 86.1 °F 55.4 °F 33% 29.64 in 10.0 mi SW 11.5 mph 17.3 mph N/A   Clear
3:53 PM 87.8 °F 85.7 °F 53.6 °F 31% 29.64 in 10.0 mi SSW 13.8 mph 21.9 mph N/A   Clear
4:12 PM 87.8 °F 85.7 °F 53.6 °F 31% 29.63 in 10.0 mi SSW 9.2 mph 17.3 mph N/A   Clear
4:33 PM 87.8 °F - 51.8 °F 29% 29.63 in 10.0 mi SSW 12.7 mph 18.4 mph N/A   Clear
4:53 PM 87.8 °F 85.7 °F 53.6 °F 31% 29.62 in 10.0 mi SW 11.5 mph 17.3 mph N/A   Clear
5:12 PM 87.8 °F 86.1 °F 55.4 °F 33% 29.62 in 10.0 mi SW 11.5 mph 20.7 mph N/A   Clear
5:33 PM 87.8 °F 85.7 °F 53.6 °F 31% 29.62 in 10.0 mi South 10.4 mph 21.9 mph N/A   Clear
5:52 PM 86.0 °F 84.2 °F 53.6 °F 33% 29.62 in 10.0 mi South 12.7 mph 18.4 mph N/A   Clear
6:12 PM 86.0 °F 84.2 °F 53.6 °F 33% 29.62 in 10.0 mi South 9.2 mph 17.3 mph N/A   Clear
6:33 PM 84.2 °F - 51.8 °F 33% 29.62 in 10.0 mi SSW 11.5 mph 18.4 mph N/A   Clear
6:52 PM 84.2 °F - 51.8 °F 33% 29.62 in 10.0 mi SSW 6.9 mph - N/A   Clear
7:13 PM 82.4 °F 81.4 °F 53.6 °F 37% 29.62 in 10.0 mi South 10.4 mph - N/A   Clear
7:32 PM 82.4 °F 81.4 °F 53.6 °F 37% 29.63 in 10.0 mi South 9.2 mph 17.3 mph N/A   Clear
7:52 PM 82.4 °F 81.4 °F 53.6 °F 37% 29.63 in 10.0 mi SSW 8.1 mph 18.4 mph N/A   Clear
8:13 PM 80.6 °F 80.5 °F 55.4 °F 42% 29.63 in 10.0 mi South 10.4 mph - N/A   Clear
8:32 PM 80.6 °F 80.5 °F 55.4 °F 42% 29.64 in 10.0 mi South 8.1 mph - N/A   Clear
8:52 PM 78.8 °F - 55.4 °F 44% 29.64 in 10.0 mi South 8.1 mph - N/A   Clear
9:13 PM 77.0 °F - 55.4 °F 47% 29.65 in 10.0 mi South 6.9 mph - N/A   Clear
9:32 PM 75.2 °F - 57.2 °F 53% 29.66 in 10.0 mi SSE 6.9 mph - N/A   Clear
9:52 PM 73.4 °F - 57.2 °F 57% 29.67 in 10.0 mi SSE 4.6 mph - N/A   Clear
10:13 PM 71.6 °F - 57.2 °F 60% 29.67 in 10.0 mi SSE 4.6 mph - N/A   Clear
10:33 PM 71.6 °F - 55.4 °F 57% 29.68 in 10.0 mi SSE 5.8 mph - N/A   Clear
10:52 PM 71.6 °F - 55.4 °F 57% 29.67 in 10.0 mi SSE 5.8 mph - N/A   Clear
11:13 PM 69.8 °F - 55.4 °F 60% 29.67 in 10.0 mi SSE 5.8 mph - N/A   Clear
11:32 PM 69.8 °F - 55.4 °F 60% 29.66 in 10.0 mi SSE 5.8 mph - N/A   Clear
11:52 PM 69.8 °F - 55.4 °F 60% 29.67 in 10.0 mi South 5.8 mph - N/A   Clear